Weather in Novooleksandrivka

Ukraine / Dnipropetrovsk Region     48°14′12″N   35°30′57″E
temp.,
°C
wind,
m/s
gust,
m/s
humid.,
%
clouds,
%
prec.,
mm/h
press.,
hPa
HPBL,
m
10 may, mon
mon1000:00+5nw48712 0.0 1024162
03:00+4nw47760 0.0 1025128
06:00+4nw37790 0.0 1026165
09:00+10nnw68550 0.0 10251021
12:00+14nnw794090 0.0 10242510
15:00+15nnw81037100 0.0 10222639
18:00+13nnw71049100 0.0 10211676
21:00+10nnw61357100 0.0 1019630
11 may, tue
tue1100:00+9nnw91570100 0.5 1016957
03:00+9nnw91678100 1.0 1015731
06:00+10n81481100 0.0 1015757
09:00+11n61185100 0.0 1014858
12:00+11ne5888100 0.1 1015830
15:00+13ne6866100 0.3 10151406
18:00+11ne58649 0.1 10161217
21:00+7nne488667 0.1 1015182
12 may, wed
wed1200:00+7nne3585100 0.3 1015428
03:00+7ene4692100 1.0 1014514
06:00+7e6993100 0.8 1015543
09:00+9ese578291 1.6 1015833
12:00+11e457393 1.6 1014855
15:00+14sse345837 3.2 10131309
18:00+14s3660100 0.8 10131039
21:00+11sse2272100 0.8 101424
13 may, thu
thu1300:00+9sse499683 0.1 1014177
03:00+8se349575 0.1 101570
06:00+9ese359175 0.0 1015109
09:00+15ese57745 0.0 1014501
12:00+20ese6855100 0.0 10131376
15:00+21ese5856100 0.0 10121518
18:00+21ese696197 0.0 10111040
21:00+15ese5128743 0.0 1012272
14 may, fri
fri1400:00+15ese5149420 0.0 1011320
03:00+14ese4109788 0.6 1011213
06:00+14se489761 0.0 1010201
09:00+19s458289 0.0 1011499
12:00+23ssw3452100 0.0 1011959
15:00+25ssw3441100 0.0 10111248
18:00+24ssw3452100 0.0 1011155
21:00+19w1160100 0.0 101111